Regional Weather Roundup
Issued by NWS Austin/San Antonio, TX

Home | Current Version | Previous Version | Text Only | Print | Product List | Glossary On
Versions: 1 2 3 4 5 6 7 8 9 10 11 12 13 14 15 16 17 18 19 20 21 22 23 24 25 26 27 28 29 30 31 32 33 34 35 36 37 38 39 40 41 42 43 44 45 46 47 48 49 50
000
ASUS44 KEWX 200810
RWREWX
SOUTH TEXAS REGIONAL WEATHER ROUNDUP
NATIONAL WEATHER SERVICE AUSTIN/SAN ANTONIO TX
300 AM CDT WED SEP 20 2017

NOTE: "FAIR" INDICATED FEW OR NO CLOUDS BELOW 12,000 FEET WITH NO
SIGNIFICANT WEATHER AND/OR OBSTRUCTIONS TO VISIBILITY.

* - THESE STATIONS ARE NOT NWS OR FAA STATIONS...AND ARE NOT SUBJECT
    TO NWS AND FAA QUALITY CONTROL.

TXZ171-172-183>190-200900-
TEXAS HILL COUNTRY AND EDWARDS PLATEAU

CITY           SKY/WX    TMP DP  RH WIND       PRES   REMARKS
JUNCTION       CLEAR     72  69  90 CALM      29.89S
*LLANO         CLEAR     75  72  88 CALM      29.91S
BURNET         CLEAR     76  71  85 S8        29.91F
*HORSESHOE BAY CLEAR     77  71  84 S7        29.89F
*KERRVILLE     CLEAR     74  71  89 SE9       29.92S
*FREDERICKSBRG CLEAR     74  68  80 S7        29.91F
*ROCKSPRINGS   NOT AVBL
*BOERNE STAGE  MOCLDY    73  70  88 S7        29.92F
*CASTROVILLE   CLEAR     77  70  79 SE6       29.90F
HONDO          CLEAR     79  72  79 SE8       29.88F
*UVALDE        CLEAR     75  72  88 E7        29.88F
DEL RIO        CLEAR     73  67  81 E3        29.85F
LAUGHLIN AFB   CLEAR     73  67  83 CALM      29.85F
CARRIZO SPRGS  MOCLDY    77  73  88 SE5       29.84S
*EAGLE PASS    SUNNY     73  66  78 CALM      29.85S
$$

TXZ173-191>194-202-209-217>225-228-200900-
CENTRAL AND SOUTH CENTRAL TEXAS

CITY           SKY/WX    TMP DP  RH WIND       PRES   REMARKS
GEORGETOWN     PTCLDY    78  73  84 S8        29.91R
AUSTIN/BERGSTM PTCLDY    78  75  90 S8        29.88F
AUSTIN/MABRY   MOCLDY    78  73  84 S8        29.89F
*AUSTIN/EXEC   CLOUDY    75  75 100 S8        29.89F
*LAGO VISTA    MOCLDY    76  73  91 S8        29.91F
SAN MARCOS     CLOUDY    77  74  90 S7        29.89F
NEW BRAUNFELS  MOCLDY    78  75  90 S8        29.88S
RANDOLPH AFB   MOCLDY    76  76 100 S7        29.89S
PT SAN ANTONIO MOCLDY    78  74  87 SE8       29.87F
SAN ANTONIO    MOCLDY    78  73  84 S10       29.89F
STINSON FIELD  MOCLDY    79  75  87 SE6       29.86F
*LA GRANGE     CLOUDY    78  77  96 S5        29.88F
*GIDDINGS      CLOUDY    76  74  91 S7        29.90F
*GONZALES      CLOUDY    78  78 100 S6        29.88F
$$

TXZ163>164-176>182-195>201-210>213-226-227-235-200900-
SOUTHEAST TEXAS

CITY           SKY/WX    TMP DP  RH WIND       PRES   REMARKS
COLLEGE STN    CLOUDY    79  76  90 S9        29.89F
*BRYAN         CLOUDY    78  78 100 S10G17    29.91R
*CALDWELL      CLOUDY    78  75  91 S8        29.90S
*CROCKETT      CLOUDY    77  75  94 S6        29.93S
*BRENHAM       CLOUDY    80  78  93 S8        29.90F
HUNTSVILLE     PTCLDY    78  74  87 VRB5      29.90S
CONROE         CLOUDY    76  75  97 CALM      29.91R FOG
HOUSTON BUSH   MOCLDY    80  76  87 S8        29.89F
HOUSTON HOBBY  MOCLDY    81  76  84 S3        29.89S
*HOUSTON SW AP PTCLDY    75  75  98 CALM      29.91S FOG
PEARLAND       CLEAR     82  76  81 CALM      29.91S
HOUSTON HOOKS  MOCLDY    80  77  90 S3        29.90S
ELLINGTON FLD  MOCLDY    81  77  89 SE5       29.89S
SUGAR LAND     PTCLDY    79  77  94 S5        29.89S
*HOUSTON EXEC  CLEAR     77  77 100 S7        29.91F FOG
*CLEVELAND MUN CLEAR     77  76  95 SE3       29.91S FOG
*WHARTON         N/A     75  73  95 CALM      29.91R FOG
*COLUMBUS      MOCLDY    77  75  94 CALM      29.91S
*EAGLE LAKE    CLOUDY    78  78  99 S3        29.90F FOG
$$

TXZ214>216-236>238-200900-
THE UPPER TEXAS COAST

CITY           SKY/WX    TMP DP  RH WIND       PRES   REMARKS
*ORANGE        CLEAR     79  78  97 S5        29.93S
PORT ARTHUR    CLEAR     79  76  90 S7        29.91S
GALVESTON      PTCLDY    84  79  85 S17       29.91S HX  96
ANGLETON       PTCLDY    80  77  90 S7        29.89S
*BAY CITY      PTCLDY    79  77  95 CALM      29.89S
PALACIOS       PTCLDY    81  76  84 S12       29.87F
$$

TXZ229>234-239>247-200900-
TEXAS COASTAL BEND AND RIO GRANDE PLAINS

CITY           SKY/WX    TMP DP  RH WIND       PRES   REMARKS
VICTORIA       PTCLDY    77  75  93 S7        29.88F
*BEEVILLE      PTCLDY    78  78 100 SE5       29.88S
ROCKPORT       PTCLDY    83  76  79 S7        29.87F HX  91
*PORT ARANSAS  NOT AVBL
*PORT LAVACA   PTCLDY    77  74  90 S5        29.89F
*INGLESIDE     NOT AVBL
CORPUS CHRISTI MOCLDY    79  77  94 S8        29.87F
CORPUS NAS     PTCLDY    84  78  82 S14       29.87R HX  95
*ROBSTOWN      PTCLDY    80  76  89 S6        29.88S
ALICE          PTCLDY    80  76  87 S8        29.87S
KINGSVILLE NAS MOCLDY    80  79  96 CALM      29.88R
COTULLA        MOCLDY    80  73  79 SE9       29.85F
*FAITH RANCH   CLEAR     82  68  61 SE13      29.84F
LAREDO         MOCLDY    83  72  69 SE17      29.85S
$$

TXZ248>255-200900-
DEEP SOUTH TEXAS

CITY           SKY/WX    TMP DP  RH WIND       PRES   REMARKS
BROWNSVILLE    CLEAR     80  78  94 SE9       29.88S
PORT ISABEL    CLEAR     83  77  82 S13       29.87S HX  92
*SOUTH PADRE   NOT AVBL
HARLINGEN      PTCLDY    80  78  94 S12       29.86S
*HEBBRONVILLE  CLEAR     78  73  85 S7        29.88S
MCALLEN        MOCLDY    83  77  82 SE12      29.86F HX  92
*WESLACO       CLEAR     80  75  85 S10       29.86S
FALFURRIAS     PTCLDY   -38  32 100 SE7       29.86S WCI -59
EDINBURG       PTCLDY    82  76  80 SE8       29.87R
*ZAPATA        CLEAR     82  72  73 SE10      29.85S
$$

TXZ213>215-236>238-242>244-246-247-251-254-255-200900-
CMAN STATIONS

STATION/POSITION TIME  TEMP    WIND        PRES    WAVE
                       AIR SEA DIR/SP/G            HT/PER
                 (UTC) (F)     (DEG/KT/KT) (MB)    (FT/S)
SABINE PASS      0748   82 84  170/  9/ 13 1014.4
SEA RIM ST PARK  0700   82     160/ 12/ 14 1013.5
NORTH JETTY/GLS  0742      84  160/ 15/ 17 1012.1
EAGLE POINT      0748   83 85  180/ 12/ 14 1012.5
MORGANS POINT    0748   82 82  160/  8/ 11 1012.4
PORT O`CONNOR    0748   83 84  160/ 15/ 17 1011.6
MALAQUITE BEACH  0748   83 85  150/ 18/ 21 1010.9
BAFFIN BAY       0748   83 83  150/ 16/ 21 1011.1
PORT ISABEL      0748   83 85  150/ 12/ 16 1011.6
$$




USA.gov is the U.S. government's official web portal to all federal, state and local government web resources and services.